Location: Unnamed
(47.6264°N, 122.3366°W)
Time: 07:09:34
(UTC-07:00)

X-37B - Pass Details

Date: 22 June 2021
Orbit: 383 x 392 km, 45.0° (Epoch: 01 July)

Event Time Altitude Azimuth Distance (km) Brightness Sun altitude
Rises 22:07:30 0° 209° (SSW) 2,246 4.3 -7.8°
Reaches altitude 10° 22:10:15 10° 183° (S) 1,396 3.0 -8.1°
Maximum altitude 22:11:59 14° 149° (SSE) 1,185 2.4 -8.3°
Enters shadow 22:13:32 11° 119° (ESE) 1,357 2.7 -8.5°
